Location: Caixon
(43.4106°N, 0.0273°E)
Time: 14:40:53
(UTC+00:00)

ATLAS 5 CENTAUR R/B - Pass Details

Date: 16 October 2021
Orbit: 497 x 1159 km, 63.4° (Epoch: 25 November)

Event Time Altitude Azimuth Distance (km) Brightness Sun altitude
Exits shadow 03:54:35 58° 213° (SSW) 1,103 2.5 -26.2°
Drops below altitude 10° 04:00:39 10° 160° (SSE) 2,861 5.0 -25.1°
Sets 04:03:30 0° 157° (SSE) 3,885 5.8 -24.6°
